Regional Weather Roundup
Issued by NWS

Home | Current Version | Previous Version | Text Only | Print | Product List | Glossary On
Versions: 1 2 3 4 5 6 7 8 9 10 11 12 13 14 15 16 17 18 19 20 21 22 23 24 25 26 27 28 29 30 31 32 33 34 35 36 37 38 39 40 41 42 43 44 45 46 47 48 49 50
000
ASUS45 KCYS 171510
RWRWY

WYOMING REGIONAL WEATHER ROUNDUP
NATIONAL WEATHER SERVICE CHEYENNE WY
900 AM MDT WED SEP 17 2014

NOTE:  "FAIR" INDICATES FEW OR NO CLOUDS BELOW 12,000 FEET
WITH NO SIGNIFICANT WEATHER AND/OR OBSTRUCTIONS TO VISIBILITY.

WYZ001-171600-
YELLOWSTONE NATIONAL PARK

CITY           SKY/WX    TMP DP  RH WIND       PRES   REMARKS
LK YELLOWSTONE   N/A     47  40  76 CALM      30.26R
W YELLOWSTONE  NOT AVBL

$$
WYZ002>013-054>058-071-098>099-171600-
NORTHERN WYOMING

CITY           SKY/WX    TMP DP  RH WIND       PRES   REMARKS
JACKSON        PTSUNNY   45  43  93 VRB3      30.20S
CODY           SUNNY     63  43  48 CALM      30.05S
GREYBULL       SUNNY     58  47  66 SE3       30.00R
WORLAND        SUNNY     58  47  66 SW3       30.02R
SHERIDAN       MOSUNNY   65  50  58 CALM      29.96F
BUFFALO        LGT RAIN  70  43  37 S3        30.05R
GILLETTE       PTSUNNY   69  43  38 W9        30.00R
HULETT         FAIR      66  43  42 MISG      30.00
NEWCASTLE      FAIR      64  37  36 CALM      30.03

$$
WYZ014>020-022>026-101>103-171600-
CENTRAL WYOMING

CITY           SKY/WX    TMP DP  RH WIND       PRES   REMARKS
BIG PINEY      TSTM      53  40  61 NE12      30.27R
PINEDALE       PTSUNNY   57  41  54 NW22G28   30.29R THUNDER
DUBOIS         FAIR      50  43  76 CALM      30.20R
LANDER         PTSUNNY   61  43  51 CALM      30.10F
RIVERTON       CLOUDY    57  45  64 VRB3      30.09R
CASPER         MOSUNNY   64  38  38 W8        30.08R
DOUGLAS        PTSUNNY   63  40  42 NW3       30.08R

$$
WYZ021-027>030-104>119-171600-
SOUTHERN WYOMING

CITY           SKY/WX    TMP DP  RH WIND       PRES   REMARKS
EVANSTON       SUNNY     58  38  47 S7        30.20R
KEMMERER       MOSUNNY   54  39  58 N5        30.22S
FORT BRIDGER   FAIR      59  40  48 N3        30.22S
ROCK SPRINGS   PTSUNNY   60  36  40 VRB3      30.19R
DIXON          FAIR      60  40  49 SE7       30.23S
RAWLINS        SUNNY     60  37  42 VRB3      30.20S
SARATOGA       FAIR      61  36  39 SE12      30.23S
LARAMIE        SUNNY     59  36  42 S9        30.23S
CHEYENNE       SUNNY     68  39  34 CALM      30.14S
TORRINGTON     MOSUNNY   62  47  57 W6        30.02R
PINE BLUFFS    FAIR      64  41  42 CALM      30.09S

$$


USA.gov is the U.S. government's official web portal to all federal, state and local government web resources and services.